Marion, OH

6:51 AM EDT on October 17, 2019 (GMT -0400)
Marion Municipal

Weather History for KMNN - September, 2019

Change the Weather History Date:

Friday, September 20, 2019

  Actual Average (WUND) Record (WUND)
Temperature  
Mean Temperature 74 °F -  
Max Temperature 87 °F - - (-1)
Min Temperature 62 °F - - (-1)
Cooling Degree Days 9    
Growing Degree Days 24 (Base 50)    
Moisture  
Dew Point 61 °F    
Average Humidity 67    
Maximum Humidity 87    
Minimum Humidity 46    
Precipitation  
Precipitation 0.00 in - - ()
Sea Level Pressure  
Sea Level Pressure 30.16 in    
Wind  
Wind Speed 7 mph (South)    
Max Wind Speed 14 mph    
Max Gust Speed -    
Visibility 9 miles    
Events Rain , Thunderstorm    
Averages and records for this station are not official NWS values.
T = Trace of Precipitation, MM = Missing Value Source: NWS Daily Summary

Daily Weather History Graph

Daily Weather History Graph

Search for Another Location

Airport or City:

Astronomy

Sep. 20, 2019 Rise Set
Actual Time 7:17 AM EDT 7:33 PM EDT
Civil Twilight 6:50 AM EDT 8:00 PM EDT
Nautical Twilight 6:18 AM EDT 8:32 PM EDT
Astronomical Twilight 5:45 AM EDT 9:05 PM EDT
Moon 11:20 PM EDT (9/20) 1:22 PM EDT (9/20)
Length of Visible Light 13h 10m
Length of Day
12h 15m
Waning Gibbous, 65% of the Moon is Illuminated
Sep 20
Waning Gibbous
Sep 21
Last Quarter
Sep 28
New
Oct 5
First Quarter
Oct 13
Full

Hourly Weather History & Observations

Time (EDT) Temp. Heat Index Dew Point Humidity Pressure Visibility Wind Dir Wind Speed Gust Speed Precip Events Conditions
12:53 AM 64.9 °F - 54.0 °F 68% 30.14 in 10.0 mi SSE 8.1 mph - N/A   Clear
1:53 AM 66.0 °F - 53.1 °F 63% 30.15 in 10.0 mi SSE 8.1 mph - N/A   Clear
2:53 AM 64.9 °F - 52.0 °F 63% 30.15 in 10.0 mi South 8.1 mph - N/A   Clear
3:53 AM 64.0 °F - 52.0 °F 65% 30.15 in 10.0 mi South 6.9 mph - N/A   Clear
4:53 AM 64.0 °F - 53.1 °F 67% 30.15 in 10.0 mi SSE 8.1 mph - N/A   Scattered Clouds
5:53 AM 62.1 °F - 54.0 °F 75% 30.17 in 10.0 mi SSE 8.1 mph - N/A   Clear
6:53 AM 62.1 °F - 55.0 °F 78% 30.17 in 10.0 mi SSE 8.1 mph - N/A   Clear
7:53 AM 62.1 °F - 55.9 °F 80% 30.18 in 10.0 mi SSE 6.9 mph - N/A   Clear
8:53 AM 66.0 °F - 59.0 °F 78% 30.19 in 10.0 mi South 6.9 mph - N/A   Clear
9:53 AM 70.0 °F - 61.0 °F 73% 30.19 in 10.0 mi South 8.1 mph - N/A   Clear
10:53 AM 73.9 °F - 63.0 °F 68% 30.19 in 9.0 mi South 8.1 mph - N/A   Clear
11:53 AM 77.0 °F - 64.9 °F 66% 30.19 in 9.0 mi Variable 5.8 mph - N/A   Clear
12:53 PM 80.1 °F 81.9 °F 64.9 °F 60% 30.18 in 9.0 mi South 6.9 mph - N/A   Clear
1:53 PM 82.9 °F 84.6 °F 64.9 °F 54% 30.16 in 9.0 mi Variable 6.9 mph - N/A   Clear
2:53 PM 84.0 °F 85.4 °F 64.0 °F 51% 30.13 in 9.0 mi SSE 5.8 mph - N/A   Partly Cloudy
3:53 PM 84.0 °F 84.5 °F 62.1 °F 47% 30.13 in 9.0 mi Calm Calm - N/A   Mostly Cloudy
4:53 PM 86.0 °F 86.8 °F 63.0 °F 46% 30.12 in 9.0 mi South 5.8 mph - N/A   Partly Cloudy
5:53 PM 84.0 °F 84.5 °F 62.1 °F 47% 30.12 in 9.0 mi Calm Calm - N/A   Partly Cloudy
6:53 PM 82.9 °F 84.0 °F 63.0 °F 51% 30.12 in 9.0 mi SSE 3.5 mph - N/A   Partly Cloudy
7:53 PM 75.9 °F - 64.9 °F 69% 30.14 in 9.0 mi East 6.9 mph - N/A   Scattered Clouds
8:53 PM 75.0 °F - 64.9 °F 71% 30.15 in 9.0 mi SSE 10.4 mph - N/A   Clear
9:31 PM 73.9 °F - 64.9 °F 73% 30.17 in 9.0 mi SSE 8.1 mph - N/A Thunderstorm Partly Cloudy
9:53 PM 73.9 °F - 66.0 °F 76% 30.17 in 9.0 mi SW 4.6 mph - N/A   Mostly Cloudy
10:07 PM 73.9 °F - 66.0 °F 76% 30.18 in 8.0 mi SSW 13.8 mph - 0.00 in Rain , Thunderstorm Light Thunderstorms and Rain
10:37 PM 72.0 °F - 64.9 °F 78% 30.18 in 10.0 mi SSW 9.2 mph - 0.00 in   Overcast
10:53 PM 73.0 °F - 66.0 °F 79% 30.15 in 8.0 mi SW 10.4 mph - 0.00 in   Scattered Clouds
11:53 PM 70.0 °F - 66.0 °F 87% 30.17 in 7.0 mi SE 3.5 mph - N/A   Clear